Location: Spondin
(51.8528°N, 111.6118°W)
Time: 18:32:57
(UTC+00:00)

Vanguard 2 Rocket - Pass Details

Date: 26 May 2022
Orbit: 553 x 3323 km, 32.9° (Epoch: 02 July)

Event Time Altitude Azimuth Distance (km) Brightness Sun altitude
Rises 18:16:02 0° 192° (SSW) 7,228 11.8 56.7°
Reaches altitude 10° 18:23:48 10° 175° (S) 6,272 11.8 57.2°
Maximum altitude 18:34:05 17° 144° (SE) 5,475 11.7 57.9°
Drops below altitude 10° 18:43:17 10° 111° (ESE) 5,575 11.3 58.4°
Sets 18:49:19 0° 94° (E) 6,129 11.3 58.7°
